Weather History for Columbia Owens, SC

Change the Weather History Date:

Sunday, December 15, 2013

  Actual Average Record
Temperature  
Mean Temperature 48 °F 48 °F  
Max Temperature 58 °F 58 °F 74 °F (2008)
Min Temperature 38 °F 38 °F 19 °F (2010)
Degree Days  
Heating Degree Days 17 17  
Month to date heating degree days 189 232  
Since 1 July heating degree days 603 603  
Cooling Degree Days 0 0  
Month to date cooling degree days 6 0  
Year to date cooling degree days 2229 2256  
Moisture  
Dew Point 42 °F    
Average Humidity 75    
Maximum Humidity 100    
Minimum Humidity 49    
Precipitation  
Precipitation 0.06 in 0.12 in 2.33 in (2007)
Month to date precipitation 2.93 1.65  
Year to date precipitation 49.80 43.85  
Sea Level Pressure  
Sea Level Pressure 29.94 in    
Wind  
Wind Speed 6 mph (West)    
Max Wind Speed 15 mph    
Max Gust Speed 20 mph    
Visibility 8 miles    
Events Rain    
T = Trace of Precipitation, MM = Missing Value Source: NWS Daily Summary

Daily Weather History Graph

Daily Weather History Graph

Search for Another Location

Airport:

Trip Planner

Search our weather history database for the weather conditions in past years. The results will help you decide how hot, cold, wet, or windy it might be!

Date:

Astronomy

Dec. 15, 2013 Rise Set
Actual Time 7:22 AM EST 5:16 PM EST
Civil Twilight 6:54 AM EST 5:44 PM EST
Nautical Twilight 6:23 AM EST 6:15 PM EST
Astronomical Twilight 5:52 AM EST 6:45 PM EST
Moon 4:16 PM EST (12/15) 5:40 AM EST (12/15)
Length of Visible Light 10h 49m
Length of Day
9h 54m
Waxing Gibbous, 97% of the Moon is Illuminated
Dec 15
Waxing Gibbous
Dec 17
Full
Dec 25
Last Quarter
Jan 1
New
Jan 7
First Quarter

Hourly Weather History & Observations

Time (EST) Temp. Windchill Dew Point Humidity Pressure Visibility Wind Dir Wind Speed Gust Speed Precip Events Conditions
12:37 AM 46.9 °F - 46.0 °F 97% 29.83 in 6.0 mi SW 4.6 mph - N/A   Overcast
12:53 AM 48.0 °F - 46.0 °F 93% 29.87 in 6.0 mi West 8.1 mph - N/A   Overcast
1:53 AM 48.0 °F - 46.0 °F 93% 29.85 in 6.0 mi West 4.6 mph - N/A   Overcast
2:50 AM 48.2 °F - 46.4 °F 93% 29.83 in 4.0 mi South 4.6 mph - 0.03 in Rain Light Rain
2:53 AM 48.0 °F - 46.9 °F 96% 29.83 in 4.0 mi SSE 4.6 mph - 0.03 in Rain Light Rain
3:53 AM 48.9 °F - 46.9 °F 93% 29.81 in 4.0 mi WNW 4.6 mph - 0.03 in Rain Light Rain
4:53 AM 48.9 °F - 48.0 °F 97% 29.79 in 4.0 mi Calm Calm - 0.00 in   Clear
5:13 AM 48.9 °F - 48.0 °F 97% 29.79 in 2.5 mi Calm Calm - N/A   Clear
5:25 AM 48.9 °F - 48.0 °F 97% 29.80 in 3.0 mi Calm Calm - N/A   Clear
5:53 AM 52.0 °F - 50.0 °F 93% 29.81 in 10.0 mi WSW 4.6 mph - N/A   Mostly Cloudy
6:53 AM 53.1 °F - 50.0 °F 89% 29.85 in 10.0 mi WSW 5.8 mph - N/A   Overcast
7:53 AM 53.1 °F - 46.9 °F 80% 29.88 in 10.0 mi West 11.5 mph - N/A   Mostly Cloudy
8:53 AM 52.0 °F - 46.9 °F 83% 29.91 in 10.0 mi West 10.4 mph - N/A   Scattered Clouds
9:53 AM 53.1 °F - 45.0 °F 74% 29.95 in 10.0 mi WNW 9.2 mph - N/A   Overcast
10:42 AM 52.0 °F - 43.0 °F 71% 29.96 in 10.0 mi WNW 12.7 mph 19.6 mph N/A   Overcast
10:53 AM 51.1 °F - 43.0 °F 74% 29.96 in 10.0 mi West 13.8 mph 19.6 mph N/A   Overcast
11:29 AM 52.0 °F - 43.0 °F 71% 29.96 in 10.0 mi WNW 8.1 mph 17.3 mph N/A   Overcast
11:53 AM 53.1 °F - 42.1 °F 66% 29.95 in 10.0 mi West 11.5 mph - N/A   Mostly Cloudy
12:53 PM 52.0 °F - 42.1 °F 69% 29.94 in 10.0 mi West 8.1 mph - N/A   Overcast
1:53 PM 53.1 °F - 42.1 °F 66% 29.94 in 10.0 mi West 9.2 mph - N/A   Overcast
2:03 PM 54.0 °F - 42.1 °F 64% 29.94 in 10.0 mi West 6.9 mph - N/A   Overcast
2:53 PM 55.9 °F - 42.1 °F 60% 29.95 in 10.0 mi Variable 4.6 mph - N/A   Overcast
3:53 PM 57.0 °F - 39.9 °F 53% 29.96 in 10.0 mi West 9.2 mph - N/A   Overcast
4:53 PM 55.9 °F - 39.0 °F 53% 29.98 in 10.0 mi Variable 4.6 mph - N/A   Partly Cloudy
5:53 PM 50.0 °F - 39.9 °F 68% 30.01 in 10.0 mi Calm Calm - N/A   Clear
6:53 PM 50.0 °F - 34.0 °F 54% 30.05 in 10.0 mi NNW 3.5 mph - N/A   Clear
7:53 PM 48.0 °F - 30.9 °F 52% 30.08 in 10.0 mi Variable 3.5 mph - N/A   Clear
8:53 PM 46.9 °F - 28.9 °F 50% 30.10 in 10.0 mi NW 5.8 mph - N/A   Clear
9:53 PM 45.0 °F 42.6 °F 30.0 °F 56% 30.12 in 10.0 mi NW 4.6 mph - N/A   Clear
10:53 PM 43.0 °F 41.3 °F 28.9 °F 58% 30.15 in 10.0 mi NNW 3.5 mph - N/A   Clear
11:53 PM 39.0 °F - 30.9 °F 73% 30.16 in 10.0 mi Calm Calm - N/A   Clear